Estació meteorològica de Bellmunt (Osona, Osona)

Consulta les dades en temps real de l'estació meteorològica de Bellmunt





Hora UTC 19:45
Temperatura 17.3 ºC
Humitat 88.0 %
Pressió 1016.2 hPa
Pluja 0.0 mm
Velocitat vent 3.2 km/h
Direcció vent NNE

Dades diàries 2026-08-31



Hora UTC (hivern +1h; estiu +2h)
Temperatura (ºC) Humitat (%) Pressió (hPa) Velocitat vent (km/h) Precipitació (mm)
Hora UTC Aire Humitat Pressió Vel. Dir. Vel. Max Dir. Intent. màx 5 min.
00:05 20.8 56.0 1014.7 4.8 S 4.8 0.0
00:10 20.8 56.0 1014.7 0.0 S 8.0 0.0
00:15 20.7 56.0 1014.7 1.6 SE 8.0 0.0
00:20 20.7 56.0 1014.7 0.0 SE 9.7 0.0
00:25 20.7 56.0 1014.7 0.0 SE 9.7 0.0
00:30 20.8 55.0 1014.7 0.0 SE 6.4 0.0
00:35 20.8 54.0 1014.7 11.3 S 11.3 0.0
00:40 20.9 54.0 1014.6 0.0 SSE 9.7 0.0
00:45 20.9 55.0 1014.6 1.6 SE 3.2 0.0
00:50 20.8 55.0 1014.6 6.4 SE 8.0 0.0
00:55 20.7 56.0 1014.6 6.4 ESE 9.7 0.0
01:00 20.7 56.0 1014.6 9.7 ESE 9.7 0.0
01:05 20.7 56.0 1014.5 6.4 ESE 11.3 0.0
01:10 20.8 56.0 1014.5 12.9 ESE 14.5 0.0
01:15 20.8 56.0 1014.5 9.7 ESE 14.5 0.0
01:20 20.7 57.0 1014.5 11.3 ESE 14.5 0.0
01:25 20.8 57.0 1014.5 6.4 SE 12.9 0.0
01:30 20.7 58.0 1014.4 0.0 SE 11.3 0.0
01:35 20.8 58.0 1014.3 1.6 SE 4.8 0.0
01:40 20.8 58.0 1014.4 0.0 SE 6.4 0.0
01:45 20.8 58.0 1014.4 0.0 SE 4.8 0.0
01:50 20.7 58.0 1014.4 0.0 SE 0.0 0.0
01:55 20.6 58.0 1014.4 0.0 SE 0.0 0.0
02:00 20.6 58.0 1014.5 0.0 WSW 0.0 0.0
02:05 20.4 58.0 1014.5 0.0 S 1.6 0.0
02:10 20.3 59.0 1014.5 0.0 S 1.6 0.0
02:15 20.1 60.0 1014.4 1.6 NW 3.2 0.0
02:20 19.9 60.0 1014.4 1.6 NNW 3.2 0.0
02:25 19.8 60.0 1014.5 1.6 W 3.2 0.0
02:30 19.6 61.0 1014.4 3.2 NNW 4.8 0.0
02:35 19.4 61.0 1014.3 1.6 NNW 6.4 0.0
02:40 19.4 61.0 1014.4 1.6 E 3.2 0.0
02:45 19.3 61.0 1014.4 3.2 WSW 14.5 0.0
02:50 19.2 62.0 1014.4 3.2 SE 16.1 0.0
02:55 19.1 63.0 1014.4 3.2 SE 16.1 0.0
03:00 19.2 63.0 1014.4 0.0 ESE 12.9 0.0
03:05 19.2 62.0 1014.4 3.2 SE 6.4 0.0
03:10 19.1 62.0 1014.4 3.2 ESE 17.7 0.0
03:15 19.0 62.0 1014.4 12.9 SE 17.7 0.0
03:20 18.9 63.0 1014.4 12.9 SE 17.7 0.0
03:25 19.0 63.0 1014.4 14.5 ESE 20.9 0.0
03:30 19.1 64.0 1014.4 12.9 SE 20.9 0.0
03:35 19.2 63.0 1014.3 6.4 SE 19.3 0.0
03:40 19.2 64.0 1014.3 1.6 ESE 16.1 0.0
03:45 19.1 64.0 1014.2 3.2 SE 6.4 0.0
03:50 18.9 64.0 1014.4 0.0 SE 12.9 0.0
03:55 18.9 65.0 1014.4 0.0 S 12.9 0.0
04:00 18.8 65.0 1014.4 3.2 SSE 3.2 0.0
04:05 18.9 65.0 1014.4 6.4 SE 16.1 0.0
04:10 19.1 64.0 1014.4 0.0 ESE 16.1 0.0
04:15 19.1 64.0 1014.4 1.6 SE 12.9 0.0
04:20 19.1 64.0 1014.4 0.0 SE 12.9 0.0
04:25 19.1 64.0 1014.3 0.0 SE 12.9 0.0
04:30 19.2 63.0 1014.3 3.2 SE 6.4 0.0
04:35 19.1 63.0 1014.3 3.2 SE 6.4 0.0
04:40 19.1 63.0 1014.3 4.8 SE 12.9 0.0
04:45 19.1 63.0 1014.3 0.0 SE 12.9 0.0
04:50 19.1 64.0 1014.3 3.2 SE 8.0 0.0
04:55 18.9 64.0 1014.3 0.0 SE 6.4 0.0
05:00 18.9 64.0 1014.3 3.2 SE 9.7 0.0
05:05 18.9 64.0 1014.3 0.0 SE 6.4 0.0
05:10 18.8 64.0 1014.3 0.0 ESE 4.8 0.0
05:15 18.8 64.0 1014.4 0.0 SE 4.8 0.0
05:20 18.8 64.0 1014.4 0.0 SE 4.8 0.0
05:25 18.7 65.0 1014.6 0.0 SE 4.8 0.0
05:30 18.7 65.0 1014.6 0.0 SE 1.6 0.0
05:35 18.6 65.0 1014.7 0.0 SE 1.6 0.0
05:40 18.6 65.0 1014.7 0.0 SE 1.6 0.0
05:45 18.6 65.0 1014.8 0.0 SE 0.0 0.0
05:50 18.6 65.0 1014.8 1.6 SE 1.6 0.0
05:55 18.5 66.0 1014.8 0.0 SE 1.6 0.0
06:00 18.5 66.0 1014.8 0.0 SSE 0.0 0.0
06:05 18.5 66.0 1014.8 0.0 SSE 0.0 0.0
06:10 18.4 67.0 1014.8 0.0 SSW 1.6 0.0
06:15 18.4 67.0 1014.9 0.0 S 3.2 0.0
06:20 18.4 67.0 1014.9 8.0 S 9.7 0.0
06:25 18.4 68.0 1014.9 0.0 S 9.7 0.0
06:30 18.5 68.0 1014.9 8.0 SE 8.0 0.0
06:35 18.5 67.0 1014.9 0.0 SSE 12.9 0.0
06:40 18.4 65.0 1014.9 0.0 SSE 11.3 0.0
06:45 18.4 66.0 1014.9 4.8 SE 9.7 0.0
06:50 18.3 67.0 1014.9 4.8 ESE 11.3 0.0
06:55 18.4 65.0 1015.0 0.0 SE 12.9 0.0
07:00 18.4 65.0 1015.0 0.0 E 12.9 0.0
07:05 18.3 66.0 1015.1 0.0 SE 11.3 0.0
07:10 18.2 66.0 1015.1 0.0 ESE 11.3 0.0
07:15 18.3 67.0 1015.1 3.2 SE 9.7 0.0
07:20 18.3 65.0 1015.1 1.6 SW 9.7 0.0
07:25 18.3 65.0 1015.0 1.6 SE 4.8 0.0
07:30 18.4 64.0 1015.2 1.6 SE 11.3 0.0
07:35 18.5 65.0 1015.2 1.6 SE 11.3 0.0
07:40 18.6 64.0 1015.2 6.4 SE 11.3 0.0
07:45 18.6 64.0 1015.1 1.6 ESE 11.3 0.0
07:50 18.6 64.0 1015.2 1.6 ESE 11.3 0.0
07:55 18.5 64.0 1015.3 1.6 W 6.4 0.0
08:00 18.5 62.0 1015.3 8.0 SSW 8.0 0.0
08:05 18.5 62.0 1015.4 0.0 SSW 8.0 0.0
08:10 18.4 62.0 1015.4 9.7 S 20.9 0.0
08:15 18.3 64.0 1015.4 16.1 S 22.5 0.0
08:20 18.2 64.0 1015.6 9.7 S 20.9 0.0
08:25 18.4 65.0 1015.6 8.0 SSW 19.3 0.0
08:30 18.6 65.0 1015.8 11.3 SSW 17.7 0.0
08:35 18.8 63.0 1015.8 11.3 S 16.1 0.0
08:40 18.9 63.0 1015.8 6.4 SSW 14.5 0.0
08:45 19.6 63.0 1016.0 9.7 S 22.5 0.0
08:50 19.3 63.0 1016.0 12.9 S 22.5 0.0
08:55 18.9 63.0 1016.0 8.0 SSW 19.3 0.0
09:00 18.8 62.0 1016.0 1.6 S 17.7 0.0
09:05 19.1 60.0 1016.1 14.5 S 22.5 0.0
09:10 18.9 56.0 1016.1 11.3 SSE 22.5 0.0
09:15 18.8 59.0 1016.2 19.3 S 19.3 0.0
09:20 18.8 57.0 1016.2 12.9 ESE 19.3 0.0
09:25 18.7 57.0 1016.2 12.9 SSW 29.0 0.0
09:30 19.0 56.0 1016.3 12.9 S 29.0 0.0
09:35 19.2 56.0 1016.2 17.7 SSW 25.7 0.0
09:40 19.1 55.0 1016.3 12.9 S 25.7 0.0
09:45 19.4 56.0 1016.4 19.3 S 25.7 0.0
09:50 19.4 54.0 1016.4 17.7 S 30.6 0.0
09:55 19.3 55.0 1016.3 0.0 SSW 30.6 0.0
10:00 19.4 53.0 1016.4 20.9 S 27.4 0.0
10:05 19.6 56.0 1016.4 24.1 S 27.4 0.0
10:10 19.4 56.0 1016.3 19.3 S 27.4 0.0
10:15 20.1 54.0 1016.3 3.2 S 32.2 0.0
10:20 20.2 53.0 1016.3 20.9 S 32.2 0.0
10:25 20.1 53.0 1016.4 19.3 SSW 27.4 0.0
10:30 20.1 51.0 1016.4 12.9 S 30.6 0.0
10:35 20.2 53.0 1016.4 14.5 S 30.6 0.0
10:40 20.0 53.0 1016.4 8.0 SSW 30.6 0.0
10:45 20.2 54.0 1016.4 3.2 ESE 29.0 0.0
10:50 20.7 54.0 1016.5 3.2 SE 19.3 0.0
10:55 21.3 53.0 1016.4 3.2 W 16.1 0.0
11:00 21.5 52.0 1016.4 11.3 S 27.4 0.0
11:05 21.4 53.0 1016.4 3.2 SSW 27.4 0.0
11:10 21.2 53.0 1016.3 16.1 S 20.9 0.0
11:15 20.8 53.0 1016.3 1.6 SE 20.9 0.0
11:20 21.3 53.0 1016.2 12.9 S 27.4 0.0
11:25 21.6 52.0 1016.2 4.8 S 27.4 0.0
11:30 21.9 52.0 1016.2 11.3 S 17.7 0.0
11:35 22.5 51.0 1016.2 1.6 SSW 17.7 0.0
11:40 22.9 51.0 1016.1 9.7 SSW 19.3 0.0
11:45 22.7 49.0 1016.3 11.3 SSW 22.5 0.0
11:50 22.9 49.0 1016.2 6.4 SSW 19.3 0.0
11:55 23.1 49.0 1016.0 16.1 SW 19.3 0.0
12:00 22.7 49.0 1016.1 11.3 S 22.5 0.0
12:05 23.0 50.0 1016.0 6.4 S 22.5 0.0
12:10 23.2 50.0 1016.0 14.5 SSW 17.7 0.0
12:15 22.9 50.0 1015.8 20.9 SW 22.5 0.0
12:20 22.6 52.0 1015.9 16.1 SSW 20.9 0.0
12:25 22.6 53.0 1015.9 19.3 S 25.7 0.0
12:30 22.9 53.0 1015.8 11.3 S 27.4 0.0
12:35 22.7 53.0 1015.8 19.3 SSW 32.2 0.0
12:40 22.6 53.0 1015.8 3.2 SE 32.2 0.0
12:45 22.6 53.0 1015.9 12.9 SSW 24.1 0.0
12:50 22.8 55.0 1015.9 24.1 SW 24.1 0.0
12:55 22.9 54.0 1015.8 22.5 S 27.4 0.0
13:00 22.9 55.0 1015.7 12.9 SSW 27.4 0.0
13:05 23.6 54.0 1015.8 17.7 SSW 24.1 0.0
13:10 23.2 54.0 1015.8 11.3 SSW 22.5 0.0
13:15 23.3 55.0 1015.8 9.7 S 22.5 0.0
13:20 23.2 55.0 1015.7 1.6 SW 14.5 0.0
13:25 23.8 54.0 1015.6 1.6 E 14.5 0.0
13:30 23.4 54.0 1015.6 4.8 SE 14.5 0.0
13:35 23.4 56.0 1015.6 14.5 SSW 20.9 0.0
13:40 23.2 53.0 1015.6 9.7 SW 29.0 0.0
13:45 23.5 56.0 1015.4 1.6 NW 29.0 0.0
13:50 23.9 54.0 1015.5 8.0 S 16.1 0.0
13:55 24.3 51.0 1015.4 16.1 SSW 29.0 0.0
14:00 23.8 52.0 1015.3 16.1 SSW 33.8 0.0
14:05 24.2 53.0 1015.3 17.7 S 30.6 0.0
14:10 23.9 52.0 1015.3 17.7 SW 30.6 0.0
14:15 24.2 50.0 1015.3 8.0 SSW 30.6 0.0
14:20 24.0 50.0 1015.2 0.0 SW 20.9 0.0
14:25 24.8 48.0 1015.2 16.1 SSW 20.9 0.0
14:30 24.6 45.0 1015.2 9.7 SSW 25.7 0.0
14:35 24.4 47.0 1015.2 4.8 SW 25.7 0.0
14:40 25.1 43.0 1015.2 12.9 SW 29.0 0.0
14:45 25.1 42.0 1015.2 20.9 SSW 29.0 0.0
14:50 25.1 42.0 1015.2 9.7 SW 20.9 0.0
14:55 24.9 41.0 1015.2 17.7 SSW 27.4 0.0
15:00 24.9 43.0 1015.2 1.6 SW 27.4 0.0
15:05 25.6 41.0 1015.2 12.9 SSW 17.7 0.0
15:10 24.9 42.0 1015.1 3.2 WSW 19.3 0.0
15:15 24.8 43.0 1015.1 20.9 S 33.8 0.0
15:20 24.4 44.0 1015.3 14.5 SSW 32.2 0.0
15:25 24.3 44.0 1015.3 16.1 SSW 30.6 0.0
15:30 24.7 44.0 1015.2 16.1 SSW 30.6 0.0
15:35 24.5 58.0 1015.3 9.7 S 27.4 0.0
15:40 23.4 64.0 1015.0 29.0 S 29.0 0.0
15:45 23.1 66.0 1015.1 3.2 ESE 30.6 0.0
15:50 22.4 69.0 1014.9 4.8 ENE 25.7 0.0
15:55 22.1 70.0 1015.0 1.6 W 25.7 0.0
16:00 22.1 72.0 1015.0 3.2 SW 19.3 0.0
16:05 22.1 72.0 1015.0 0.0 S 22.5 0.0
16:10 21.2 75.0 1014.8 4.8 SE 20.9 0.0
16:15 20.9 77.0 1014.8 8.0 SE 19.3 0.0
16:20 20.8 77.0 1014.8 9.7 ESE 20.9 0.0
16:25 20.3 77.0 1014.9 3.2 SE 20.9 0.0
16:30 19.9 79.0 1014.7 3.2 SE 6.4 0.0
16:35 19.9 79.0 1014.7 12.9 ESE 12.9 0.0
16:40 19.8 79.0 1014.6 1.6 ESE 20.9 0.0
16:45 19.8 79.0 1014.7 12.9 ESE 20.9 0.0
16:50 19.7 79.0 1014.7 3.2 SE 19.3 0.0
16:55 19.7 79.0 1014.6 0.0 SSE 19.3 0.0
17:00 19.6 80.0 1014.4 3.2 NNE 22.5 0.0
17:05 19.3 80.0 1014.5 14.5 E 25.7 0.0
17:10 19.2 80.0 1014.7 6.4 E 25.7 0.0
17:15 19.2 80.0 1015.1 1.6 NE 22.5 0.0
17:20 19.0 81.0 1015.1 20.9 NNE 20.9 0.0
17:25 18.8 81.0 1015.2 8.0 SE 20.9 0.0
17:30 19.1 81.0 1014.8 4.8 SE 14.5 0.0
17:35 19.1 81.0 1015.0 9.7 ESE 17.7 0.0
17:40 19.1 81.0 1015.1 3.2 E 17.7 0.0
17:45 18.9 82.0 1015.2 3.2 NE 14.5 0.0
17:50 18.6 83.0 1015.0 16.1 ENE 24.1 0.0
17:55 18.2 84.0 1015.1 6.4 E 24.1 0.0
18:00 18.2 84.0 1015.1 3.2 ENE 22.5 0.0
18:05 18.2 85.0 1015.3 8.0 NE 14.5 0.0
18:10 18.1 85.0 1015.2 6.4 ESE 14.5 0.0
18:15 17.9 86.0 1015.3 4.8 NE 20.9 0.0
18:20 17.8 86.0 1015.3 4.8 ESE 20.9 0.0
18:25 17.8 86.0 1015.3 11.3 E 16.1 0.0
18:30 18.1 85.0 1015.4 3.2 SE 16.1 0.0
18:35 18.1 85.0 1015.3 8.0 NNE 16.1 0.0
18:40 17.9 85.0 1015.4 1.6 SSE 9.7 0.0
18:45 17.9 86.0 1015.4 3.2 SE 9.7 0.0
18:50 17.9 86.0 1015.5 6.4 ESE 9.7 0.0
18:55 17.8 86.0 1015.5 4.8 ESE 12.9 0.0
19:00 17.7 86.0 1015.7 4.8 ENE 12.9 0.0
19:05 17.7 86.0 1015.6 4.8 S 8.0 0.0
19:10 17.7 86.0 1015.8 3.2 ESE 8.0 0.0
19:15 17.6 86.0 1015.7 9.7 NNE 14.5 0.0
19:20 17.4 86.0 1015.8 3.2 NNE 14.5 0.0
19:25 17.3 87.0 1015.8 4.8 NE 12.9 0.0
19:30 17.3 87.0 1016.0 1.6 NE 9.7 0.0
19:35 17.3 87.0 1016.1 8.0 NNE 9.7 0.0
19:40 17.2 87.0 1016.2 8.0 NNE 11.3 0.0
19:45 17.3 88.0 1016.2 3.2 NNE 11.3 0.0
Màxima 25.6 88.0 1016.5 29.0 S 33.8 0.0
Mínima 17.2 41.0 1014.2
Total 0.0